Volver al catálogo

CZ-4 DEB

ActivoSSO
NORAD 20885·DEBRIS·🇨🇳 China

Lanzado Sep 3, 1990 desde Taiyuan Satellite Launch Center

Loading…

Próximos Pases (próximas 24 horas)

TLE

ActualizadoSource: Space-Track

Época: Sep 14, 2026, 05:09 UTC

1 20885U 90081AV  26257.21515993  .00000004  00000-0  34849-4 0  9994
2 20885  98.8549 241.1271 0067780  83.8047 290.9886 13.91094980822529

Sigue CZ-4 DEB en tiempo real con AllMySat

Download on the App Store